AUA645 LOWW-LKPR

Flight info

Callsign AUA645
Flight time 0h 33m
Altitude 22000
Route LANUX DCT TABEM DCT VLM
Aircraft A320/M-SDE3FGHIRWY/LB1

Departure

Time 2026-04-22 19:36
Airport Vienna International Airport (LOWW)

Arrival

Time 2026-04-22 20:10
Airport Václav Havel Airport Prague (LKPR)
Time Latitude Longitude Altitude Speed Heading
2026-04-22 19:10 48.11695 16.56848 610 ft 0 kts 25°
2026-04-22 19:23 48.11683 16.56839 623 ft 4 kts 25°
2026-04-22 19:23 48.11657 16.56823 625 ft 4 kts 20°
2026-04-22 19:24 48.11632 16.56812 615 ft 4 kts
2026-04-22 19:24 48.11612 16.56819 615 ft 2 kts 299°
2026-04-22 19:24 48.11610 16.56822 614 ft 0 kts 296°
2026-04-22 19:26 48.11614 16.56810 614 ft 6 kts 296°
2026-04-22 19:26 48.11647 16.56709 617 ft 15 kts 296°
2026-04-22 19:26 48.11702 16.56546 610 ft 19 kts 296°
2026-04-22 19:27 48.11754 16.56380 622 ft 17 kts 292°
2026-04-22 19:27 48.11701 16.56275 620 ft 9 kts 206°
2026-04-22 19:27 48.11647 16.56228 614 ft 9 kts 222°
2026-04-22 19:27 48.11621 16.56198 616 ft 0 kts 206°
2026-04-22 19:30 48.11611 16.56191 611 ft 6 kts 204°
2026-04-22 19:30 48.11533 16.56280 612 ft 17 kts 117°
2026-04-22 19:30 48.11475 16.56454 613 ft 20 kts 114°
2026-04-22 19:30 48.11409 16.56658 615 ft 24 kts 116°
2026-04-22 19:31 48.11332 16.56895 625 ft 25 kts 114°
2026-04-22 19:31 48.11258 16.57131 614 ft 24 kts 117°
2026-04-22 19:31 48.11203 16.57293 613 ft 16 kts 116°
2026-04-22 19:31 48.11156 16.57437 611 ft 15 kts 116°
2026-04-22 19:32 48.11119 16.57554 616 ft 3 kts 116°
2026-04-22 19:32 48.11118 16.57554 615 ft 0 kts 116°
2026-04-22 19:33 48.11118 16.57555 615 ft 1 kts 116°
2026-04-22 19:33 48.11103 16.57601 614 ft 8 kts 117°
2026-04-22 19:33 48.11064 16.57651 609 ft 7 kts 167°
2026-04-22 19:33 48.11023 16.57632 619 ft 1 kts 204°
2026-04-22 19:34 48.11022 16.57631 619 ft 0 kts 204°
2026-04-22 19:35 48.10980 16.57603 613 ft 16 kts 205°
2026-04-22 19:35 48.10922 16.57519 620 ft 10 kts 283°
2026-04-22 19:35 48.10936 16.57467 612 ft 1 kts 296°
2026-04-22 19:36 48.10948 16.57429 620 ft 19 kts 296°
2026-04-22 19:36 48.11138 16.56846 612 ft 101 kts 296°
2026-04-22 19:36 48.11540 16.55618 636 ft 158 kts 295°
2026-04-22 19:36 48.11975 16.54125 1444 ft 156 kts 287°
2026-04-22 19:37 48.11820 16.52485 2183 ft 179 kts 245°
2026-04-22 19:37 48.10878 16.51034 2626 ft 209 kts 225°
2026-04-22 19:37 48.09700 16.49561 3165 ft 229 kts 223°
2026-04-22 19:37 48.08462 16.48047 4137 ft 230 kts 224°
2026-04-22 19:38 48.07419 16.46245 5025 ft 233 kts 246°
2026-04-22 19:38 48.06684 16.43977 5805 ft 242 kts 250°
2026-04-22 19:38 48.06099 16.41659 6778 ft 241 kts 265°
2026-04-22 19:38 48.06152 16.39164 7701 ft 236 kts 289°
2026-04-22 19:39 48.06607 16.36799 8664 ft 239 kts 291°
2026-04-22 19:39 48.07084 16.34399 9645 ft 243 kts 291°
2026-04-22 19:39 48.07566 16.31986 10557 ft 248 kts 291°
2026-04-22 19:39 48.08061 16.29494 11439 ft 253 kts 291°
2026-04-22 19:40 48.08575 16.26908 12216 ft 264 kts 291°
2026-04-22 19:40 48.09100 16.24258 12968 ft 272 kts 291°
2026-04-22 19:40 48.09638 16.21512 13838 ft 278 kts 291°
2026-04-22 19:40 48.10187 16.18705 14617 ft 284 kts 292°
2026-04-22 19:41 48.10748 16.15848 15402 ft 289 kts 292°
2026-04-22 19:41 48.11357 16.12972 16197 ft 291 kts 297°
2026-04-22 19:41 48.12353 16.10361 16838 ft 292 kts 316°
2026-04-22 19:41 48.13963 16.08441 17073 ft 304 kts 339°
2026-04-22 19:42 48.15970 16.07163 17277 ft 325 kts 342°
2026-04-22 19:42 48.18138 16.05840 17414 ft 348 kts 342°
2026-04-22 19:42 48.20444 16.04418 17552 ft 369 kts 341°
2026-04-22 19:42 48.22867 16.02902 17759 ft 384 kts 341°
2026-04-22 19:43 48.27871 15.99720 18873 ft 395 kts 341°
2026-04-22 19:43 48.30410 15.98104 19424 ft 398 kts 341°
2026-04-22 19:43 48.32978 15.96469 19946 ft 402 kts 341°
2026-04-22 19:44 48.35567 15.94824 20475 ft 406 kts 341°
2026-04-22 19:44 48.38187 15.93160 20990 ft 410 kts 342°
2026-04-22 19:44 48.40825 15.91484 21493 ft 414 kts 342°
2026-04-22 19:44 48.43488 15.89792 21953 ft 418 kts 342°
2026-04-22 19:45 48.46177 15.88083 22209 ft 421 kts 342°
2026-04-22 19:45 48.48916 15.86340 22262 ft 434 kts 342°
2026-04-22 19:45 48.51730 15.84549 22247 ft 444 kts 342°
2026-04-22 19:45 48.54588 15.82723 22247 ft 447 kts 342°
2026-04-22 19:46 48.57454 15.80883 22243 ft 447 kts 341°
2026-04-22 19:46 48.60317 15.79038 22237 ft 448 kts 341°
2026-04-22 19:46 48.63182 15.77188 22251 ft 448 kts 341°
2026-04-22 19:46 48.66052 15.75337 22252 ft 449 kts 341°
2026-04-22 19:47 48.68927 15.73485 22251 ft 449 kts 342°
2026-04-22 19:47 48.71800 15.71636 22248 ft 449 kts 342°
2026-04-22 19:47 48.73702 15.70411 22247 ft 449 kts 342°
2026-04-22 19:47 48.77542 15.67938 22249 ft 449 kts 342°
2026-04-22 19:48 48.80420 15.66086 22247 ft 448 kts 342°
2026-04-22 19:48 48.83291 15.64236 22252 ft 449 kts 342°
2026-04-22 19:48 48.86160 15.62378 22253 ft 449 kts 341°
2026-04-22 19:48 48.89028 15.60514 22246 ft 449 kts 341°
2026-04-22 19:49 48.91862 15.58669 22237 ft 449 kts 341°
2026-04-22 19:49 48.94767 15.56774 22241 ft 448 kts 341°
2026-04-22 19:49 48.97633 15.54905 22226 ft 448 kts 341°
2026-04-22 19:49 49.00505 15.53034 22230 ft 448 kts 341°
2026-04-22 19:50 49.03373 15.51163 22232 ft 449 kts 341°
2026-04-22 19:50 49.06241 15.49287 22243 ft 449 kts 341°
2026-04-22 19:50 49.09109 15.47408 22200 ft 449 kts 341°
2026-04-22 19:50 49.11981 15.45525 21930 ft 448 kts 341°
2026-04-22 19:51 49.14839 15.43646 21593 ft 445 kts 341°
2026-04-22 19:51 49.17636 15.41804 21197 ft 442 kts 341°
2026-04-22 19:51 49.20450 15.39948 20810 ft 439 kts 341°
2026-04-22 19:51 49.23245 15.38103 20427 ft 436 kts 341°
2026-04-22 19:52 49.26023 15.36268 19933 ft 432 kts 341°
2026-04-22 19:52 49.28772 15.34450 19426 ft 428 kts 341°
2026-04-22 19:52 49.31494 15.32650 18889 ft 424 kts 341°
2026-04-22 19:52 49.34192 15.30869 18334 ft 420 kts 341°
2026-04-22 19:53 49.36863 15.29105 17718 ft 416 kts 340°
2026-04-22 19:53 49.39503 15.27355 17180 ft 409 kts 340°
2026-04-22 19:53 49.41240 15.26197 17054 ft 395 kts 340°
2026-04-22 19:53 49.44473 15.24037 16879 ft 371 kts 340°
2026-04-22 19:54 49.46786 15.22490 16751 ft 355 kts 341°
2026-04-22 19:54 49.49005 15.21009 16620 ft 341 kts 341°
2026-04-22 19:54 49.51135 15.19588 16500 ft 324 kts 341°
2026-04-22 19:54 49.53144 15.18245 16356 ft 306 kts 341°
2026-04-22 19:55 49.55065 15.16962 16002 ft 297 kts 341°
2026-04-22 19:55 49.56949 15.15703 15537 ft 294 kts 341°
2026-04-22 19:55 49.58812 15.14459 15058 ft 291 kts 341°
2026-04-22 19:55 49.60662 15.13224 14590 ft 288 kts 341°
2026-04-22 19:56 49.62490 15.12000 14101 ft 285 kts 341°
2026-04-22 19:56 49.64304 15.10787 13583 ft 282 kts 340°
2026-04-22 19:56 49.66096 15.09584 13072 ft 280 kts 340°
2026-04-22 19:56 49.67869 15.08383 12560 ft 276 kts 338°
2026-04-22 19:57 49.69535 15.06907 12068 ft 277 kts 329°
2026-04-22 19:57 49.71036 15.05053 11571 ft 278 kts 321°
2026-04-22 19:57 49.72350 15.02845 11193 ft 280 kts 313°
2026-04-22 19:57 49.73535 15.00472 10838 ft 278 kts 312°
2026-04-22 19:58 49.74717 14.98115 10484 ft 276 kts 313°
2026-04-22 19:58 49.75873 14.95809 10273 ft 275 kts 312°
2026-04-22 19:58 49.77021 14.93510 10267 ft 262 kts 313°
2026-04-22 19:58 49.78114 14.91318 10193 ft 254 kts 313°
2026-04-22 19:59 49.79190 14.89171 9863 ft 252 kts 313°
2026-04-22 20:00 49.85367 14.76662 8285 ft 223 kts 312°
2026-04-22 20:00 49.85978 14.75415 8204 ft 217 kts 312°
2026-04-22 20:01 49.86879 14.73578 8077 ft 211 kts 312°
2026-04-22 20:01 49.87756 14.71790 7941 ft 205 kts 312°
2026-04-22 20:01 49.88624 14.70025 7632 ft 206 kts 312°
2026-04-22 20:01 49.89486 14.68270 7358 ft 204 kts 312°
2026-04-22 20:02 49.90348 14.66518 7101 ft 205 kts 311°
2026-04-22 20:02 49.91208 14.64766 6862 ft 201 kts 311°
2026-04-22 20:02 49.92030 14.63087 6717 ft 188 kts 311°
2026-04-22 20:02 49.92797 14.61519 6558 ft 178 kts 312°
2026-04-22 20:03 49.93537 14.60011 6343 ft 173 kts 312°
2026-04-22 20:03 49.94258 14.58540 6116 ft 169 kts 312°
2026-04-22 20:03 49.94965 14.57098 5888 ft 167 kts 312°
2026-04-22 20:03 49.95661 14.55676 5666 ft 165 kts 312°
2026-04-22 20:04 49.96350 14.54267 5440 ft 163 kts 312°
2026-04-22 20:04 49.97029 14.52877 5223 ft 160 kts 312°
2026-04-22 20:04 49.97699 14.51505 5002 ft 158 kts 312°
2026-04-22 20:04 49.98351 14.50170 4782 ft 153 kts 312°
2026-04-22 20:05 49.98988 14.48864 4585 ft 151 kts 312°
2026-04-22 20:05 49.99621 14.47567 4373 ft 150 kts 312°
2026-04-22 20:05 50.00247 14.46284 4168 ft 149 kts 312°
2026-04-22 20:05 50.00869 14.45007 3964 ft 147 kts 312°
2026-04-22 20:06 50.01485 14.43744 3767 ft 146 kts 312°
2026-04-22 20:06 50.02095 14.42490 3573 ft 145 kts 312°
2026-04-22 20:06 50.02701 14.41244 3373 ft 144 kts 312°
2026-04-22 20:06 50.03295 14.40022 3177 ft 143 kts 312°
2026-04-22 20:07 50.03895 14.38789 2984 ft 143 kts 312°
2026-04-22 20:07 50.04492 14.37560 2792 ft 142 kts 312°
2026-04-22 20:07 50.05083 14.36344 2602 ft 141 kts 311°
2026-04-22 20:07 50.05654 14.35165 2421 ft 130 kts 311°
2026-04-22 20:08 50.06186 14.34068 2252 ft 125 kts 311°
2026-04-22 20:08 50.06707 14.32994 2074 ft 124 kts 310°
2026-04-22 20:08 50.07226 14.31926 1889 ft 124 kts 309°
2026-04-22 20:08 50.07744 14.30857 1721 ft 124 kts 308°
2026-04-22 20:09 50.08260 14.29791 1534 ft 123 kts 307°
2026-04-22 20:09 50.08776 14.28724 1382 ft 123 kts 307°
2026-04-22 20:09 50.09291 14.27657 1216 ft 117 kts 307°
2026-04-22 20:09 50.09687 14.26835 1209 ft 71 kts 307°
2026-04-22 20:10 50.09955 14.26280 1197 ft 58 kts 307°
2026-04-22 20:10 50.10175 14.25828 1187 ft 41 kts 309°
2026-04-22 20:10 50.10308 14.25681 1186 ft 19 kts 340°
2026-04-22 20:10 50.10423 14.25663 1183 ft 12 kts
2026-04-22 20:11 50.10445 14.25667 1183 ft 1 kts
2026-04-22 20:11 50.10446 14.25667 1183 ft 0 kts
2026-04-22 20:12 50.10460 14.25672 1182 ft 7 kts 18°
2026-04-22 20:12 50.10488 14.25759 1179 ft 11 kts 78°
2026-04-22 20:12 50.10504 14.25884 1173 ft 13 kts 78°
2026-04-22 20:12 50.10522 14.26025 1171 ft 14 kts 79°
2026-04-22 20:13 50.10538 14.26169 1174 ft 13 kts 85°
2026-04-22 20:13 50.10511 14.26297 1171 ft 12 kts 124°
2026-04-22 20:13 50.10464 14.26404 1173 ft 11 kts 124°
2026-04-22 20:13 50.10466 14.26458 1174 ft 5 kts 46°
2026-04-22 20:14 50.10483 14.26478 1172 ft 1 kts 36°
2026-04-22 20:14 50.10486 14.26481 1172 ft 0 kts 35°